map of SGN home
Great Circle Mapper logo
SGN - Airport
Location
City:  Ho Chi Minh City, Vietnam
Near (Alt.):Saigon
Name:Tan Son Nhat International Airport
ICAO / IATA:VVTS / SGN

Details
Type:Airport (Aerodrome, Airfield)
Use:Public/Civil, International (customs port of entry)
Latitude:1049'08"N (10.818797)
Longitude:10639'07"E (106.651856)
Datum:WGS 1984
Elevation:33 ft (10 m)
Variation:0.4W (WMM2010 magnetic declination)
Runways:2
Longest:12468 × 148 ft (3800 × 45 m), paved

Time
Time Zone:UTC+7
Local Time:

Weather
METAR:VVTS 280100Z VRB03KT 5000 BR FEW015 SCT040 28/25 Q1011 TEMPO TL0050 6000 NSW

Related Locations
Nearby:
Farthest:SPAY: 12422 mi / 19991 km
Atalaya, PE

Find:

   beyond  
but within

Other Information
Maps:
NOTAMs:
Links:
Sources:

  
flag of Vietnam   

Airport Diagram

Airport diagram for SGN

Airport diagram (OBSOLETE) from NGA

Sectional Chart

Flight Planning
at skyvector.com

Satellite Image

Google Maps Satellite View

 

Copyright © 2004-2014 Karl L. Swartz. All rights reserved.
The Great Circle Mapper name and logo are trademarks of the Great Circle Mapper.
All other trademarks mentioned herein belong to their respective owners.
Please see credits for attibutions and further copyright information.

  Follow gcmap on Facebook Follow gcmap on Twitter

hCard Microformat

Geo Microformat